Find Starlink 34425

NORAD ID: 64350 Int'l Des: 2025-126 Owner: SPXS Country: US Constellation: starlink operational
LEOCIRCULAR

現在のビュー

3D地球を読み込み中...

About Starlink 34425

Starlink 34425 (NORAD 64350) is a starlink constellation satellite (v2 mini) launched Jun 13, 2025 by SPXS of US. It operates in LEO, CIRCULAR orbit with a mass of 575.00 kg.

次回通過

Passes for default location (London). Set your location on the main map for personalized predictions.

高度履歴

Loading altitude history...

軌道要素

1 64350U 25126G 26263.39607449 .00006198 00000-0 21994-3 0 9997
2 64350 70.0002 261.2727 0003217 270.9216 89.1591 15.29571224 69901
Epoch: Sep 20, 2026 • Age: 41 hours

現在のステータス

高度 480.8 km
遠地点 / 近地点 N/A
速度 7.63 km/s
衛星直下点 -8.85°S, 141.5°W
打ち上げ日 Jun 13, 2025
運用期間 1.2 years
タイプ internet

技術仕様

分類 Payload
質量 575.00 kg
乾燥質量 530.00 kg
長さ 0.30 m
スパン 29.00 m
形状 ? Box + pan
製造者 SPXS
バスタイプ Starlink V2MO
フェーズステータス In Orbit
所有者/国 SPXS/US

Most Searched